Simultaneous Nadir Overpasses (SNOs) Predictions

Prediction of SNOs between NOAA-20 and NOAA-19 Satellite Orbit:

Table of predicted SNOs for the next 14.0 days since TLE Epoch: 2/3/2024
Index Date (NOAA-20) Time (NOAA-20) Lat,Lon (NOAA-20) SZA (NOAA-20 ) Date (NOAA-19) Time (NOAA-19) Lat,Lon (NOAA-19) SZA (NOAA-19 ) Distance(km) Time Diff (sec)
1 02/12/2024 10:53:56 -73.50,-173.23 92.39 02/12/2024 10:52:46 -73.50,-174.95 92.25 54.61 70
2 02/12/2024 11:44:49 73.85, -6.73 88.00 02/12/2024 11:43:36 73.87, -6.76 88.04 3.00 73
3 02/12/2024 12:35:34 -73.90, 160.46 91.96 02/12/2024 12:34:36 -73.91, 160.57 91.95 3.46 58
4 02/12/2024 13:26:20 73.90, -32.24 88.03 02/12/2024 13:25:34 73.89, -32.20 88.04 1.40 46
5 02/12/2024 14:17:04 -73.91, 135.07 91.98 02/12/2024 14:16:34 -73.92, 135.13 91.96 2.67 30
6 02/12/2024 15:07:50 73.91, -57.62 88.01 02/12/2024 15:07:32 73.91, -57.64 88.03 1.13 18
7 02/12/2024 15:58:34 -73.91, 109.69 92.00 02/12/2024 15:58:32 -73.94, 109.68 91.96 3.82 2
8 02/12/2024 16:49:21 73.96, -83.12 88.05 02/12/2024 16:49:30 73.93, -83.08 88.02 3.08 9
9 02/12/2024 17:40:04 -73.96, 84.19 91.96 02/12/2024 17:40:29 -73.96, 84.24 91.97 1.68 25
10 02/12/2024 18:30:50 73.96,-108.51 88.03 02/12/2024 18:31:27 73.95,-108.52 88.01 1.07 37
11 02/12/2024 19:21:34 -73.97, 58.80 91.98 02/12/2024 19:22:27 -73.98, 58.80 91.98 1.73 53
12 02/12/2024 20:12:20 73.97,-133.89 88.01 02/12/2024 20:13:25 73.97,-133.96 88.01 2.26 65
13 02/12/2024 21:03:09 -74.21, 32.81 91.72 02/12/2024 21:04:21 -74.19, 33.86 91.83 32.02 72



Historial Predications of SNOs between NOAA-20 and NOAA-19
